This is the latest recevied weather packets stored in our database for station/object KN6CRX-10. If no packets are shown the sender has not sent any weather packets the latest 10 day(s).
| Time | Temp. | Humidity | Pressure | Rain* | Wind** | Luminosity | Snow |
|---|---|---|---|---|---|---|---|
| 1788223189 | 25.56° C | 38% | 1017.4 hPa | 0 mm | - | 51 W/m² | - |
| 1788222884 | 25.56° C | 40% | 1017.2 hPa | 0 mm | - | 69 W/m² | - |
| 1788222583 | 25.56° C | 42% | 1017.4 hPa | 0 mm | - | 81 W/m² | - |
| 1788222282 | 25.56° C | 41% | 1017.5 hPa | 0 mm | - | 88 W/m² | - |
| 1788221977 | 25.56° C | 42% | 1017.5 hPa | 0 mm | - | 87 W/m² | - |
| 1788221672 | 25.56° C | 42% | 1017.5 hPa | 0 mm | - | 77 W/m² | - |
| 1788221367 | 25.56° C | 42% | 1017.5 hPa | 0 mm | - | 78 W/m² | - |
| 1788221062 | 25.56° C | 41% | 1017.4 hPa | 0 mm | - | 80 W/m² | - |
| 1788220761 | 25.56° C | 41% | 1017.2 hPa | 0 mm | - | 87 W/m² | - |
| 1788220458 | 25.56° C | 42% | 1017.5 hPa | 0 mm | - | 98 W/m² | - |
| 1788220158 | 25.56° C | 41% | 1017.4 hPa | 0 mm | - | 124 W/m² | - |
| 1788219858 | 25.56° C | 42% | 1017.2 hPa | 0 mm | - | 128 W/m² | - |
| 1788219553 | 25.56° C | 42% | 1017.4 hPa | 0 mm | - | 138 W/m² | - |
| 1788219248 | 26.11° C | 41% | 1017.5 hPa | 0 mm | - | 144 W/m² | - |
| 1788218944 | 26.11° C | 39% | 1017.5 hPa | 0 mm | - | 146 W/m² | - |
| 1788218639 | 26.11° C | 37% | 1017.4 hPa | 0 mm | - | 158 W/m² | - |
| 1788218335 | 26.11° C | 38% | 1017 hPa | 0 mm | - | 177 W/m² | - |
| 1788218032 | 26.11° C | 39% | 1017 hPa | 0 mm | - | 185 W/m² | - |
| 1788217727 | 26.11° C | 39% | 1017.1 hPa | 0 mm | - | 188 W/m² | - |
| 1788217421 | 26.11° C | 40% | 1017 hPa | 0 mm | - | 192 W/m² | - |
| 1788217122 | 26.11° C | 38% | 1017.1 hPa | 0 mm | - | 192 W/m² | - |
| 1788216816 | 26.11° C | 39% | 1016.9 hPa | 0 mm | - | 197 W/m² | - |
| 1788216512 | 26.11° C | 37% | 1017 hPa | 0 mm | - | 210 W/m² | - |
| 1788216207 | 26.11° C | 38% | 1017 hPa | 0 mm | - | 211 W/m² | - |
| 1788215901 | 26.11° C | 40% | 1017 hPa | 0 mm | - | 197 W/m² | - |
* Rain latest hour (hover to see other rain measurements)
** Current wind speed in m/s (hover to see current wind gust speed)